Find NATO IIA

NORAD ID: 4353 Int'l Des: 1970-021 Owner: NATO Country: I-NATO operational
HEOCIRCULARGSO

Live Position

Loading 3D Globe...

About NATO IIA

Description loading...

Upcoming Passes

Passes for default location (London). Set your location on the main map for personalized predictions.

Altitude History

Loading altitude history...

Two-Line Element Set

1 4353U 70021A 26105.22614722 -.00000076 00000-0 00000+0 0 9998
2 4353 0.5695 300.6029 0002139 316.5000 281.0017 1.00280921125136
Epoch: Apr 15, 2026 • Age: 4 hours

Current Status

Altitude 35775.5 km
Velocity 3.08 km/s
Sub-Earth Point -0.53°S, 106.71°W
Type other

Most Searched